Location: Bathurst
(33.4193°S, 149.5775°E)
Time: 23:52:54
(UTC+10:00)

Envisat - Visible Passes

Search period start: 26 May 2018 00:00
Search period end: 05 June 2018 00:00
Orbit: 764 x 766 km, 98.2° (Epoch: 26 May)

Date Brightness Start Highest point End Pass type
(mag) Time Alt. Az. Time Alt. Az. Time Alt. Az.
27 May 5.9 06:00:29 10° E 06:02:09 12° ESE 06:03:48 10° SE visible
29 May 5.4 06:23:38 10° ENE 06:27:23 21° ESE 06:31:10 10° SSE visible
01 Jun 5.6 06:13:13 10° ENE 06:16:22 17° ESE 06:19:30 10° SSE visible
04 Jun 5.8 06:03:08 10° E 06:05:20 13° ESE 06:07:34 10° SE visible
